Temperature
24 26 26 26 27 27 27 27 26 26 26 26 25 24 23 21 21 20 19 18 17 16 15 14 14 14 14 14 14 14 14 14 14 14 14 14 14 14 14 14 14 14 14 14
25 25 26 26 26 26 26 26 26 25 25 25 25 24 23 22 21 20 19 18 17 16 15 14 14 14 14 14 14 14 14 14 14 14 14 14 13 13 13 13 13 13 13 13
25 26 26 25 26 26 26 26 26 25 24 25 24 23 23 22 21 20 19 18 17 16 15 14 14 13 13 13 13 13 13 13 13 13 13 13 13 12 12 12 12 12 13 13
26 25 25 25 26 26 26 26 26 25 25 25 25 24 24 23 21 20 19 18 17 16 15 14 14 13 13 13 13 13 13 13 13 13 13 13 12 12 12 12 12 12 12 12
25 25 25 25 26 26 26 26 26 26 25 25 25 24 25 23 22 22 20 18 17 16 15 14 13 13 13 12 12 13 13 13 13 12 12 12 12 11 11 11 11 11 11 11
25 25 26 25 26 26 25 25 25 25 26 24 25 24 24 24 23 23 21 19 17 16 15 14 13 12 12 12 12 12 12 12 12 12 12 12 11 11 11 11 11 11 11 11
24 25 25 25 25 25 25 25 24 24 24 24 25 24 24 24 23 23 21 19 17 15 14 14 13 12 12 12 11 11 11 11 11 11 11 11 11 11 10 10 10 11 11 10
24 24 25 25 25 25 25 25 24 23 24 24 24 24 24 23 21 20 19 18 16 15 14 13 12 12 12 11 11 11 11 11 11 10 10 10 10 10 10 10 10 10 10 10
24 24 25 25 25 26 25 25 26 25 24 24 24 24 23 21 20 19 18 16 15 14 13 13 12 12 11 11 11 10 10 10 10 10 10 10 9 9 9 9 9 9 9 9
25 24 25 25 25 25 26 25 25 24 23 22 23 24 24 21 20 19 17 16 14 13 12 12 11 11 11 11 10 10 10 10 9 9 9 9 9 9 9 9 9 9 9 9
25 24 24 24 24 25 24 24 24 25 24 23 23 23 22 21 20 19 18 16 14 13 12 11 11 11 10 10 10 10 10 9 9 9 9 8 8 8 8 8 8 8 8 8
24 24 23 24 24 24 25 24 24 23 23 23 23 22 20 21 20 18 17 15 13 12 12 11 10 10 10 10 10 9 9 9 9 9 8 8 8 8 8 8 8 8 8 8
23 23 22 23 23 23 23 23 24 24 23 23 23 22 19 20 18 17 16 14 12 12 11 10 10 10 10 9 9 9 9 9 8 8 8 8 8 8 8 8 8 8 8 8
22 22 22 22 22 23 23 23 23 23 23 23 23 21 20 19 18 16 15 13 12 11 11 10 10 10 9 9 9 9 8 8 8 8 8 8 8 8 8 8 7 7 7 7
22 22 22 22 23 22 22 22 22 22 23 22 22 21 20 19 18 16 14 13 12 11 10 10 10 9 9 9 9 8 8 8 8 8 8 7 7 7 7 7 7 7 7 7
21 21 21 21 22 22 21 21 22 22 22 22 21 20 19 18 17 15 14 13 12 11 10 10 10 9 9 9 8 8 8 8 8 8 7 7 7 7 7 7 7 7 7 7
21 21 21 21 21 21 20 20 21 21 21 21 21 20 19 17 16 15 13 13 12 11 10 10 9 9 9 9 8 8 8 7 7 7 7 7 7 7 7 7 7 7 7 7
20 20 21 21 20 19 20 20 20 20 20 20 20 19 18 17 15 14 13 13 12 11 10 10 9 9 8 8 8 8 7 7 7 7 7 7 7 7 7 7 6 6 6 6
20 20 20 20 20 20 20 20 20 20 19 19 19 18 17 16 15 14 13 12 12 11 10 9 9 9 8 8 8 7 7 7 7 7 7 7 7 7 7 6 6 6 6 6
20 20 20 20 19 19 19 20 19 19 19 19 18 18 16 16 17 15 12 12 11 10 9 9 9 8 8 8 7 7 7 7 7 7 7 7 7 7 6 6 6 6 6 6
20 19 20 20 20 19 19 19 19 19 18 18 17 17 16 16 16 13 12 11 10 10 9 9 9 8 8 8 7 7 7 7 7 7 7 7 7 6 6 6 6 6 6 6
20 20 19 20 19 19 18 19 19 18 17 17 16 16 15 14 13 12 11 10 10 9 9 9 8 8 8 7 7 7 7 7 7 7 7 7 7 7 6 6 6 6 6 6
19 19 20 19 19 17 17 17 16 16 16 16 16 15 14 13 12 12 11 10 10 9 9 9 8 8 8 7 7 7 7 7 7 7 7 7 7 6 6 6 6 7 7 7
18 18 19 18 18 17 16 16 16 16 16 15 15 14 13 13 12 11 11 10 9 9 9 8 8 8 8 8 7 7 7 7 7 7 7 7 7 7 7 7 7 7 7 7
19 18 18 18 18 17 16 16 15 15 14 14 14 13 13 13 12 11 11 10 10 9 9 9 8 8 8 8 8 7 7 7 7 7 7 7 7 7 7 7 7 7 7 7
19 19 19 19 18 18 17 15 15 14 14 14 13 13 12 12 11 11 11 10 9 9 9 8 8 8 8 8 8 7 7 7 7 7 7 8 8 8 8 8 7 7 7 7
Wind_Speed
8 10 10 10 6 5 8 9 10 7 6 7 8 8 10 12 12 11 11 10 10 8 8 7 6 5 5 5 5 4 5 4 2 2 2 2 3 3 4 5 6 6 6 5
9 9 7 5 5 7 9 10 9 7 6 5 6 7 9 12 13 12 12 11 10 9 8 7 6 5 5 5 5 4 4 4 3 2 2 2 2 3 3 4 5 6 5 5
8 7 7 7 9 9 9 9 9 8 7 6 6 8 10 11 11 11 11 11 11 10 10 8 6 5 5 5 4 4 5 4 3 3 3 3 3 2 3 3 3 5 6 6
5 6 8 9 9 9 8 6 7 9 9 7 9 7 10 12 13 13 13 12 12 11 10 9 8 6 5 5 5 5 5 5 4 3 3 3 2 3 3 2 4 4 5 5
6 7 8 8 6 6 3 5 8 9 8 6 8 8 6 11 12 14 14 13 12 12 11 10 8 7 6 6 6 5 5 5 5 4 4 3 3 3 3 3 4 4 5 6
5 4 3 3 3 5 7 7 7 7 8 9 7 8 5 7 9 10 11 13 13 12 12 11 9 8 7 6 6 6 5 5 5 5 5 5 5 4 4 4 3 3 4 4
7 6 5 5 6 8 9 9 7 8 9 7 5 7 3 2 3 5 9 11 12 13 12 12 11 10 8 7 6 5 6 5 5 5 5 5 4 4 4 3 4 4 4 4
8 7 6 6 7 7 10 10 8 7 7 5 6 6 1 3 2 4 6 10 11 12 11 11 10 9 8 8 6 6 6 5 5 5 5 5 4 3 4 4 4 4 4 4
4 4 5 4 5 7 8 9 7 8 8 8 5 4 4 5 4 6 8 10 10 10 11 10 10 9 8 8 6 6 6 5 5 5 5 5 5 4 4 3 3 4 4 4
3 4 4 5 6 4 5 6 6 8 7 8 7 8 4 6 6 7 8 10 10 11 10 10 9 8 8 7 7 6 6 6 5 5 4 4 4 4 4 4 5 5 5 5
4 4 5 6 5 6 7 7 7 8 8 8 8 3 3 3 5 7 8 9 10 11 10 10 9 8 8 7 7 7 6 6 5 5 5 5 5 4 4 4 4 4 4 5
2 3 4 4 2 3 6 6 8 8 8 8 8 1 5 5 6 7 8 9 10 11 10 10 9 8 8 7 6 6 5 5 5 4 4 4 4 4 3 4 4 4 4 4
2 3 5 6 6 6 5 5 6 7 7 8 8 2 6 6 7 7 9 9 10 11 10 10 9 8 8 7 6 6 5 4 4 4 3 3 3 3 4 4 4 4 4 5
2 4 6 6 2 2 4 5 6 8 8 7 6 3 5 5 6 7 9 10 10 10 10 9 8 8 8 7 6 5 5 4 4 3 3 3 3 3 3 3 3 4 4 4
2 4 3 3 3 3 3 5 6 7 7 7 4 1 2 4 6 7 9 10 10 10 10 9 9 8 8 7 6 5 5 4 4 3 3 3 3 3 3 3 4 4 4 4
1 3 3 4 4 4 3 4 4 5 5 4 3 1 3 5 7 8 9 10 10 10 9 9 9 9 8 8 6 5 5 4 4 3 3 3 3 3 4 3 3 4 4 4
3 4 4 4 5 5 3 2 3 3 2 3 2 1 6 6 7 8 9 9 10 10 10 9 9 9 8 8 7 6 5 5 4 4 3 3 3 4 3 3 4 4 4 4
3 4 3 3 4 4 2 2 1 1 0 1 2 4 5 6 6 6 7 8 10 10 10 10 10 10 9 8 7 6 5 5 5 4 4 3 3 3 3 3 4 4 4 4
3 3 3 3 3 2 3 1 1 2 1 1 3 4 5 7 7 7 6 7 9 10 10 10 10 10 9 9 8 6 6 5 5 5 4 3 2 2 2 3 4 3 4 4
3 4 4 4 3 2 3 2 1 3 3 3 3 5 6 6 4 5 8 9 10 11 10 10 10 10 9 8 8 7 6 5 5 4 4 3 2 2 3 3 3 3 3 3
4 3 4 4 2 1 3 1 2 3 2 3 3 4 6 3 3 9 10 10 11 11 12 11 11 9 9 8 8 7 6 5 5 4 4 3 3 3 3 3 2 2 2 3
2 2 2 3 3 1 2 1 1 3 3 3 4 5 6 8 10 11 11 12 12 12 12 11 10 9 8 8 8 7 6 5 4 4 3 4 3 2 3 2 2 2 2 1
1 2 1 1 2 4 2 2 2 2 2 3 5 7 8 9 10 11 12 12 12 11 11 10 10 9 8 7 7 7 6 5 5 4 3 3 3 2 2 1 1 1 0 1
3 1 1 2 3 3 2 3 3 3 4 5 7 8 9 9 11 11 11 11 11 11 11 10 10 10 8 8 7 6 6 5 4 4 3 3 2 2 2 0 1 1 2 2
2 4 3 3 3 4 3 3 4 5 6 7 7 7 8 10 11 11 10 11 10 10 10 10 9 9 9 8 7 7 6 5 4 4 3 2 2 2 2 1 2 2 3 4
2 2 3 2 3 2 4 4 6 6 7 7 8 8 8 9 10 10 9 10 10 10 10 10 10 9 9 8 8 7 6 5 5 4 3 2 2 2 2 2 2 1 1 1
Wind_Direction
184 196 185 177 189 162 171 174 166 151 154 187 181 169 168 176 183 179 173 168 163 153 137 127 120 111 103 101 101 97 97 98 101 115 123 108 97 84 73 65 52 43 35 25
187 188 166 162 178 180 181 180 164 147 150 188 179 179 180 186 193 189 183 178 172 159 147 139 131 126 118 113 111 104 98 98 100 107 107 96 96 85 76 67 55 38 34 22
190 146 158 181 182 188 193 195 176 162 154 179 185 195 193 194 199 198 193 187 180 172 163 155 149 140 130 120 113 102 95 95 92 108 118 123 127 121 88 68 57 38 29 28
174 159 183 191 188 197 188 184 182 174 190 194 209 228 195 195 201 205 199 191 185 177 169 160 154 142 130 120 112 105 97 88 85 94 92 92 84 85 70 51 52 47 42 30
161 174 187 190 186 204 169 166 189 199 217 223 212 248 192 185 209 208 199 191 185 178 167 160 153 142 132 125 117 111 103 93 81 75 83 86 79 80 74 61 58 45 51 39
149 166 194 183 170 177 156 165 177 212 229 234 223 242 228 190 212 203 189 185 177 170 163 159 151 145 137 129 119 116 109 96 87 77 73 73 74 66 57 50 48 46 51 41
168 174 171 176 169 172 193 200 209 218 225 235 199 239 251 146 182 192 180 173 168 165 162 160 156 150 142 131 121 114 107 96 87 82 76 74 72 72 61 41 52 33 37 36
183 176 177 196 213 200 208 232 248 255 248 231 196 235 189 108 118 150 152 150 156 159 157 159 155 150 141 132 126 115 104 95 87 82 78 74 65 60 61 45 33 35 27 29
195 165 152 182 214 224 216 232 266 266 264 262 235 211 170 136 139 137 139 143 148 151 151 150 149 145 139 131 123 114 105 97 87 84 89 82 69 57 57 56 41 41 32 26
209 195 179 178 191 206 250 234 236 251 257 259 244 235 215 168 164 152 151 151 146 145 145 143 139 137 133 128 124 114 107 99 94 94 90 83 73 65 58 51 49 37 28 22
208 217 197 193 219 211 203 218 238 255 263 264 260 242 66 137 155 157 156 153 149 149 148 143 136 135 133 130 126 118 110 103 95 88 84 77 67 61 52 48 44 34 24 17
207 239 231 213 199 248 239 237 235 251 253 258 272 240 80 113 132 142 143 144 144 142 140 137 135 136 135 131 124 117 111 103 94 86 81 79 72 63 53 48 36 29 22 17
178 212 226 207 197 198 221 233 244 253 260 258 261 200 110 116 120 131 139 139 140 140 139 140 142 144 142 137 129 120 118 108 101 96 90 83 70 61 52 42 32 26 24 22
261 238 259 262 269 245 229 231 239 248 254 256 260 218 143 139 140 140 139 140 142 144 146 147 149 150 147 142 135 132 126 115 107 102 94 79 60 50 46 43 38 31 27 24
237 237 238 247 247 244 258 257 243 250 268 273 266 217 151 160 152 145 143 144 146 150 153 156 157 152 149 144 138 135 130 127 123 116 100 84 67 52 45 41 39 38 33 29
206 221 214 218 211 217 243 269 261 255 263 258 241 172 107 130 136 141 147 154 156 158 158 156 158 153 152 148 146 144 138 136 131 120 100 81 69 57 47 39 39 41 38 30
191 206 229 225 214 224 227 278 270 245 253 257 255 136 138 143 147 151 157 164 165 160 156 157 157 152 150 149 148 148 140 135 126 116 97 81 66 56 42 40 43 39 37 37
201 220 230 224 220 229 97 59 347 232 248 360 106 128 141 139 140 145 157 163 159 155 154 153 148 146 146 143 143 144 140 134 127 115 102 89 72 59 44 47 48 46 42 41
211 223 235 239 232 194 156 119 314 267 209 117 131 131 131 130 134 133 139 149 149 149 148 146 144 143 142 143 146 147 145 137 128 117 107 99 88 69 62 62 57 52 48 48
177 225 237 233 242 220 107 78 351 262 202 136 145 147 147 161 180 135 135 137 136 135 137 138 140 140 142 145 149 149 144 135 125 120 113 104 89 72 65 65 62 57 54 49
183 200 227 235 233 119 63 34 239 246 84 125 150 153 161 164 72 121 134 134 133 133 136 139 142 143 144 148 151 149 142 135 131 129 124 114 101 92 82 77 70 61 54 47
227 211 212 241 233 144 75 187 312 37 75 122 137 143 136 116 115 126 131 133 135 136 139 144 145 144 147 154 155 149 141 138 142 137 126 118 114 99 90 85 74 62 44 60
244 332 332 4 56 83 85 61 66 94 118 127 130 131 131 130 132 134 134 137 140 143 145 149 148 146 149 155 157 149 146 152 155 150 135 125 123 118 109 105 79 84 96 35
157 156 177 153 131 124 121 109 104 108 117 123 129 133 137 136 137 137 138 141 145 148 151 154 155 153 153 155 155 151 153 160 160 150 140 141 144 139 124 133 75 45 41 36
148 173 182 171 148 140 135 124 115 111 115 118 123 134 140 139 141 142 144 147 151 153 155 159 161 159 156 156 155 158 159 161 158 151 150 155 151 131 140 105 30 7 32 22
190 204 209 152 145 163 142 133 126 125 128 128 129 132 136 140 143 145 147 150 153 154 156 160 163 161 158 159 159 161 161 162 162 162 169 170 162 155 168 154 151 154 283 252
Height
1510 1506 1502 1501 1500 1500 1502 1505 1510 1512 1515 1516 1518 1523 1529 1535 1538 1541 1544 1547 1550 1553 1555 1557 1558 1559 1559 1560 1561 1561 1562 1563 1563 1564 1565 1565 1565 1565 1565 1565 1564 1564 1564 1563
1507 1503 1501 1503 1504 1504 1504 1507 1510 1515 1517 1518 1520 1524 1527 1533 1536 1539 1542 1546 1549 1552 1554 1556 1557 1558 1559 1559 1560 1561 1561 1562 1563 1563 1564 1564 1564 1564 1564 1564 1563 1563 1563 1562
1500 1501 1504 1506 1505 1506 1505 1505 1508 1514 1517 1518 1521 1526 1527 1530 1535 1538 1541 1543 1546 1550 1553 1555 1557 1558 1559 1559 1559 1560 1561 1561 1562 1563 1563 1563 1563 1563 1564 1563 1563 1562 1561 1560
1500 1503 1505 1505 1504 1504 1507 1504 1507 1512 1516 1517 1518 1524 1521 1523 1530 1534 1538 1541 1544 1548 1551 1553 1555 1557 1558 1558 1559 1559 1560 1561 1561 1562 1562 1563 1563 1563 1562 1562 1562 1561 1559 1559
1502 1503 1503 1504 1503 1503 1505 1506 1507 1508 1510 1514 1515 1519 1514 1518 1524 1526 1532 1537 1542 1546 1549 1552 1554 1556 1557 1558 1558 1559 1559 1560 1560 1561 1561 1561 1562 1562 1562 1561 1560 1560 1559 1558
1501 1503 1503 1503 1504 1505 1506 1508 1509 1508 1507 1520 1513 1517 1515 1513 1517 1519 1527 1534 1539 1543 1546 1550 1552 1554 1556 1557 1558 1558 1559 1559 1559 1560 1560 1560 1560 1560 1561 1560 1560 1560 1559 1558
1503 1502 1503 1504 1505 1507 1506 1509 1517 1520 1518 1516 1509 1514 1513 1510 1514 1519 1524 1531 1537 1541 1545 1548 1550 1553 1555 1557 1557 1558 1558 1558 1558 1559 1559 1559 1559 1560 1560 1560 1559 1559 1559 1558
1503 1505 1501 1502 1502 1503 1503 1503 1514 1522 1520 1511 1511 1513 1510 1514 1518 1521 1525 1530 1535 1540 1544 1547 1550 1552 1554 1556 1557 1557 1557 1557 1558 1558 1558 1558 1559 1560 1559 1559 1559 1558 1558 1557
1499 1503 1500 1501 1501 1500 1502 1501 1497 1505 1507 1513 1508 1508 1512 1517 1520 1523 1527 1531 1536 1540 1543 1546 1549 1551 1553 1555 1556 1557 1557 1557 1557 1557 1558 1558 1558 1558 1558 1558 1558 1558 1556 1556
1496 1504 1499 1499 1500 1501 1499 1498 1503 1506 1517 1520 1512 1508 1508 1514 1519 1523 1528 1532 1536 1539 1543 1545 1548 1550 1552 1554 1555 1556 1556 1557 1557 1557 1558 1559 1558 1558 1558 1558 1557 1556 1556 1554
1497 1503 1502 1499 1500 1499 1502 1502 1502 1501 1502 1513 1517 1512 1507 1512 1517 1522 1527 1532 1535 1539 1542 1545 1547 1549 1552 1553 1555 1556 1557 1557 1558 1558 1558 1558 1559 1559 1558 1558 1557 1556 1555 1554
1500 1499 1502 1500 1499 1499 1498 1498 1500 1508 1508 1504 1507 1514 1512 1514 1519 1523 1528 1532 1536 1539 1542 1545 1547 1550 1551 1553 1555 1556 1557 1558 1558 1558 1559 1559 1559 1559 1558 1558 1557 1556 1555 1554
1501 1503 1509 1507 1506 1501 1500 1500 1499 1499 1502 1504 1508 1514 1515 1517 1521 1525 1529 1533 1536 1539 1542 1545 1548 1550 1551 1553 1554 1556 1557 1558 1559 1559 1559 1559 1559 1559 1558 1558 1557 1556 1555 1554
1503 1502 1504 1508 1503 1499 1502 1501 1500 1500 1501 1503 1503 1508 1514 1517 1521 1526 1530 1533 1536 1540 1542 1545 1547 1550 1552 1553 1555 1556 1557 1558 1559 1559 1560 1560 1559 1559 1558 1557 1556 1556 1554 1553
1503 1502 1501 1500 1500 1500 1502 1502 1501 1501 1500 1502 1503 1506 1512 1516 1521 1526 1530 1533 1537 1540 1542 1545 1547 1549 1552 1553 1555 1556 1557 1558 1559 1559 1560 1560 1559 1559 1558 1557 1556 1555 1554 1553
1504 1504 1503 1504 1502 1502 1505 1504 1502 1502 1502 1502 1504 1510 1514 1517 1522 1526 1530 1533 1536 1539 1542 1544 1547 1549 1551 1553 1555 1556 1557 1558 1559 1559 1560 1560 1560 1559 1558 1557 1556 1555 1554 1553
1502 1505 1505 1505 1502 1504 1509 1506 1505 1505 1503 1504 1506 1511 1515 1519 1522 1526 1529 1532 1535 1538 1541 1544 1546 1549 1551 1553 1554 1556 1557 1558 1559 1559 1560 1560 1560 1559 1559 1558 1557 1556 1555 1553
1504 1504 1503 1503 1507 1516 1511 1507 1506 1507 1507 1507 1509 1513 1516 1520 1523 1526 1529 1531 1534 1537 1541 1543 1546 1548 1551 1553 1555 1556 1558 1559 1559 1560 1560 1560 1560 1560 1559 1558 1557 1556 1555 1554
1505 1504 1503 1504 1506 1509 1508 1507 1507 1508 1509 1510 1511 1515 1518 1522 1524 1527 1530 1532 1534 1537 1540 1543 1546 1548 1551 1553 1555 1556 1558 1559 1560 1560 1560 1561 1561 1560 1559 1559 1557 1557 1556 1555
1505 1504 1503 1504 1509 1511 1509 1507 1509 1510 1510 1512 1513 1516 1519 1521 1520 1526 1530 1532 1535 1538 1540 1543 1546 1549 1551 1553 1555 1557 1558 1559 1560 1561 1561 1561 1561 1561 1560 1559 1558 1557 1556 1556
1504 1504 1504 1504 1506 1506 1507 1509 1510 1512 1513 1513 1514 1516 1519 1520 1521 1527 1530 1533 1535 1538 1541 1544 1547 1549 1552 1554 1556 1557 1559 1560 1561 1561 1561 1561 1561 1561 1560 1560 1559 1558 1558 1557
1502 1502 1504 1504 1507 1512 1510 1509 1510 1513 1513 1514 1515 1517 1519 1522 1524 1527 1530 1533 1536 1539 1542 1545 1547 1550 1552 1554 1556 1558 1559 1560 1561 1561 1562 1562 1562 1562 1561 1561 1560 1559 1558 1558
1502 1503 1501 1505 1509 1511 1512 1512 1514 1514 1515 1516 1517 1519 1521 1523 1526 1529 1532 1534 1537 1540 1543 1546 1548 1551 1553 1555 1557 1558 1559 1560 1561 1562 1562 1562 1562 1562 1562 1561 1561 1560 1560 1559
1505 1507 1505 1507 1508 1511 1513 1514 1515 1515 1516 1517 1518 1520 1522 1524 1527 1530 1532 1535 1538 1541 1544 1546 1549 1551 1553 1555 1557 1558 1559 1560 1561 1562 1562 1563 1563 1563 1562 1562 1562 1562 1561 1560
1503 1505 1505 1506 1509 1511 1513 1514 1515 1516 1517 1518 1520 1522 1524 1526 1528 1530 1533 1536 1539 1542 1544 1547 1549 1551 1553 1555 1557 1559 1560 1561 1562 1562 1563 1563 1563 1563 1563 1563 1562 1562 1561 1560
1503 1504 1503 1504 1508 1509 1513 1514 1516 1517 1518 1519 1521 1523 1525 1527 1529 1531 1534 1537 1539 1542 1544 1547 1549 1552 1554 1556 1557 1559 1560 1561 1562 1563 1563 1564 1564 1563 1563 1563 1563 1562 1561 1560